[[{"header":{"parameterUnit":"m.s-1","parameterCategory":1,"la1":30.2991,"la2":30.254,"lo1":-89.0895,"lo2":-89.0444,"dy":0.0017,"dx":0.0017,"nx":28,"ny":28,"refTime":"2025-02-12T03:00:00:Z","depth":0,"parameterNumber":2,"parameterNumberName":"U-component_of_WINDS"},"data":[0,0,0,0,0,0,0,0,0,0,0,0,0,0,0,0,0,0,0,0,0,0,0,0,0,0,0,0,0,0,0,0,0,0,0,0,0,0,0,0,0,0,0,0,0,0,0,0,0,0,0,0,0,0,0,0,0,0,-1.4998,-1.4999,0,-1.5087,-1.5088,-1.5089,-1.5123,-1.5123,-1.5123,-1.5123,-1.5212,-1.5214,-1.5217,0,0,0,0,0,0,0,0,0,0,0,0,0,-1.4856,-1.4859,-1.4998,-1.4999,-1.5,-1.5086,-1.5088,-1.5089,-1.5124,-1.5123,-1.5123,-1.5123,-1.5211,-1.5214,-1.5217,0,0,0,0,0,0,0,0,0,0,0,0,0,-1.4929,-1.4859,-1.4998,-1.5028,-1.5031,-1.5086,-1.5088,-1.5089,-1.5124,-1.5123,-1.5123,-1.5123,-1.521,-1.5214,-1.5218,-1.5249,0,0,-1.523,-1.5231,0,0,0,0,0,0,0,0,-1.4924,-1.4934,-1.5022,-1.5026,-1.503,-1.5094,-1.5071,-1.5143,-1.5124,-1.5088,-1.5123,-1.5122,-1.5173,-1.518,-1.5197,-1.5253,-1.5257,-1.523,-1.5232,-1.5234,-1.5235,0,0,0,0,0,0,0,-1.4919,-1.493,-1.5033,-1.5023,-1.5028,-1.5036,-1.5046,-1.5084,-1.5131,-1.5092,-1.5094,-1.5104,-1.5175,-1.5193,-1.5199,-1.5258,-1.523,-1.5233,-1.5236,-1.5237,-1.5342,-1.5343,0,0,0,0,0,0,-1.491,-1.4926,-1.503,-1.5036,-1.4975,-1.5039,-1.505,-1.5074,-1.5131,-1.514,-1.5105,-1.5106,-1.5187,-1.5195,-1.5203,-1.5242,-1.5234,-1.5238,-1.524,-1.5342,-1.5342,-1.5343,0,0,0,0,0,0,-1.4906,-1.4919,-1.5027,-1.4981,-1.4996,-1.5042,-1.5068,-1.5075,-1.5094,-1.5141,-1.5149,-1.5115,-1.5187,-1.5197,-1.5237,-1.5246,-1.5239,-1.5243,-1.5341,-1.5342,-1.5343,-1.5322,0,0,0,0,0,0,-1.4902,-1.4917,-1.493,-1.4982,-1.4998,-1.506,-1.5068,-1.5077,-1.5101,-1.5103,-1.5153,-1.5161,-1.5187,-1.5231,-1.5241,-1.5251,-1.5246,-1.5341,-1.5342,-1.5342,-1.5322,-1.5321,-1.5321,0,0,0,0,0,-1.4897,-1.492,-1.4931,-1.4943,-1.5015,-1.506,-1.507,-1.51,-1.5101,-1.5114,-1.5144,-1.5159,-1.5243,-1.5235,-1.5246,-1.5258,-1.534,-1.5341,-1.5342,-1.5322,-1.5322,-1.5321,0,0,0,0,0,0,-1.4869,-1.4928,-1.494,-1.4981,-1.5015,-1.5066,-1.5083,-1.5099,-1.5134,-1.5134,-1.517,-1.5181,-1.5218,-1.5242,-1.5231,-1.529,-1.5293,-1.5296,-1.5273,-1.5273,-1.5273,-1.5266,-1.5249,0,0,0,0,0,-1.4867,-1.4899,-1.4949,-1.498,-1.4997,-1.5037,-1.5058,-1.5078,-1.5116,-1.513,-1.5163,-1.5198,-1.5232,-1.5254,-1.5288,-1.5325,-1.5336,-1.5339,-1.5338,-1.5338,-1.534,-1.5361,-1.5362,-1.5346,-1.5346,-1.5346,0,0,-1.4864,-1.4901,-1.4919,-1.4976,-1.5005,-1.5037,-1.5049,-1.5083,-1.5107,-1.5135,-1.5175,-1.52,-1.5241,-1.5279,-1.5298,-1.53,-1.5347,-1.5339,-1.5339,-1.5341,-1.5362,-1.5364,-1.5365,-1.5347,-1.5347,-1.5347,0,0,-1.4876,-1.4907,-1.4936,-1.4965,-1.5009,-1.5035,-1.5042,-1.5091,-1.5109,-1.5149,-1.5171,-1.5199,-1.5257,-1.5286,-1.5308,-1.5328,-1.5343,-1.5338,-1.5337,-1.5357,-1.5358,-1.5359,-1.5366,-1.5368,-1.5341,-1.5341,-1.5341,0,-1.4867,-1.4916,-1.4948,-1.4981,-1.5005,-1.5032,-1.5061,-1.5088,-1.514,-1.5156,-1.5158,-1.5231,-1.5261,-1.5306,-1.5311,-1.5328,-1.5336,-1.5333,-1.5355,-1.5357,-1.5359,-1.5366,-1.5368,-1.534,-1.534,-1.534,-1.534,0,-1.4902,-1.4936,-1.4954,-1.5005,-1.5031,-1.5061,-1.5097,-1.512,-1.5137,-1.5163,-1.5203,-1.524,-1.5281,-1.5293,-1.5311,-1.534,-1.5341,-1.5349,-1.5352,-1.5359,-1.5366,-1.5369,-1.5338,-1.5339,-1.5339,-1.5339,0,0,-1.4899,-1.4966,-1.4972,-1.4995,-1.5045,-1.5072,-1.5103,-1.5144,-1.5162,-1.5197,-1.5224,-1.5272,-1.528,-1.5305,-1.5326,-1.5343,-1.5356,-1.5349,-1.535,-1.5348,-1.539,-1.5383,-1.5386,-1.5366,-1.5367,-1.5367,-1.5386,0,-1.4916,-1.4974,-1.5004,-1.5048,-1.508,-1.5106,-1.5133,-1.5166,-1.5191,-1.522,-1.5247,-1.5281,-1.5288,-1.5303,-1.5321,-1.535,-1.5365,-1.535,-1.539,-1.5391,-1.5379,-1.539,-1.5383,-1.5399,-1.5389,-1.539,-1.539,0,-1.4945,-1.498,-1.5028,-1.5074,-1.5088,-1.5112,-1.5151,-1.518,-1.5217,-1.5234,-1.5261,-1.5282,-1.5315,-1.5315,-1.5361,-1.535,-1.5368,-1.5385,-1.5386,-1.5391,-1.5391,-1.5394,-1.5405,-1.5408,-1.5395,-1.5394,-1.5394,0,-1.4937,-1.4996,-1.5032,-1.5051,-1.5105,-1.5121,-1.5145,-1.5182,-1.5205,-1.5239,-1.5254,-1.5291,-1.5312,-1.534,-1.5369,-1.5367,-1.5411,-1.5415,-1.5426,-1.5425,-1.5434,-1.5433,-1.5447,-1.5446,-1.5446,-1.5446,-1.5445,0,-1.4953,-1.4981,-1.5029,-1.5051,-1.5083,-1.5116,-1.5147,-1.5172,-1.5205,-1.5232,-1.5257,-1.5281,-1.5319,-1.5348,-1.5371,-1.5405,-1.5414,-1.5427,-1.5433,-1.5425,-1.5423,-1.5438,-1.5437,-1.5446,-1.5446,-1.5446,-1.5446,0,-1.4949,-1.4983,-1.5024,-1.5072,-1.5085,-1.5106,-1.5147,-1.5169,-1.5195,-1.5228,-1.5238,-1.5278,-1.5313,-1.5346,-1.5393,-1.5408,-1.5442,-1.5449,-1.5429,-1.5433,-1.5441,-1.544,-1.5465,-1.547,-1.5465,-1.5465,-1.5465,0,-1.4958,-1.498,-1.503,-1.505,-1.5073,-1.5105,-1.5128,-1.5162,-1.5185,-1.5229,-1.5245,-1.5283,-1.5314,-1.5369,-1.5402,-1.5438,-1.5446,-1.5453,-1.5452,-1.5443,-1.5446,-1.5444,-1.5446,-1.5452,-1.5452,-1.5452,-1.5452,0,-1.4969,-1.4984,-1.5016,-1.5054,-1.5081,-1.5113,-1.5145,-1.516,-1.5199,-1.5223,-1.526,-1.5284,-1.5332,-1.5369,-1.5408,-1.5431,-1.5448,-1.5452,-1.5456,-1.5448,-1.5435,-1.5442,-1.5428,-1.5451,-1.5451,-1.5451,-1.5451,-1.5451,-1.4971,-1.4992,-1.503,-1.5066,-1.5093,-1.5123,-1.5146,-1.5174,-1.5205,-1.5247,-1.5265,-1.5302,-1.5338,-1.5393,-1.5416,-1.5445,-1.5448,-1.5454,-1.5456,-1.5457,-1.5455,-1.5431,-1.5452,-1.5452,-1.5452,-1.5452,-1.5452,0,-1.4983,-1.5009,-1.5041,-1.5085,-1.5113,-1.5126,-1.5162,-1.5184,-1.5217,-1.525,-1.528,-1.5322,-1.5357,-1.5392,-1.5429,-1.5446,-1.5454,-1.5454,-1.5453,-1.5458,-1.545,-1.5443,-1.5447,-1.5447,-1.5447,-1.5447,-1.5447,-1.5447,-1.4992,-1.5028,-1.5047,-1.5097,-1.5122,-1.5159,-1.5179,-1.5206,-1.5232,-1.5278,-1.5307,-1.533,-1.5364,-1.5403,-1.5436,-1.5445,-1.5457,-1.5455,-1.5466,-1.5459,-1.5459,-1.5459,-1.5452,-1.5458,-1.5458,-1.5472,-1.5472,-1.5472]},{"header":{"parameterUnit":"m.s-1","parameterCategory":1,"la1":30.2991,"la2":30.254,"lo1":-89.0895,"lo2":-89.0444,"dy":0.0017,"dx":0.0017,"nx":28,"ny":28,"refTime":"2025-02-12T03:00:00:Z","depth":0,"parameterNumber":3,"parameterNumberName":"V-component_of_WINDS"},"data":[0,0,0,0,0,0,0,0,0,0,0,0,0,0,0,0,0,0,0,0,0,0,0,0,0,0,0,0,0,0,0,0,0,0,0,0,0,0,0,0,0,0,0,0,0,0,0,0,0,0,0,0,0,0,0,0,0,0,5.3211,5.3214,0,5.3444,5.3446,5.3449,5.351,5.3509,5.3507,5.3506,5.3745,5.3752,5.376,0,0,0,0,0,0,0,0,0,0,0,0,0,5.2823,5.283,5.3211,5.3214,5.3217,5.3443,5.3446,5.3449,5.351,5.3509,5.3507,5.3505,5.3742,5.3751,5.376,0,0,0,0,0,0,0,0,0,0,0,0,0,5.3017,5.2832,5.321,5.3275,5.3283,5.3442,5.3446,5.345,5.3511,5.3509,5.3507,5.3505,5.3739,5.375,5.3762,5.3875,0,0,5.3797,5.3802,0,0,0,0,0,0,0,0,5.3006,5.3031,5.3262,5.327,5.328,5.3446,5.3397,5.3593,5.3511,5.3424,5.3506,5.3504,5.3647,5.3666,5.3714,5.3886,5.3896,5.3798,5.3805,5.381,5.3813,0,0,0,0,0,0,0,5.2993,5.3022,5.3303,5.3265,5.3276,5.3293,5.3318,5.3435,5.3545,5.3432,5.3437,5.3463,5.3651,5.3703,5.372,5.39,5.3798,5.3808,5.3815,5.3819,5.4181,5.4184,0,0,0,0,0,0,5.2968,5.301,5.3296,5.331,5.3135,5.3301,5.333,5.3395,5.3543,5.3564,5.3465,5.3465,5.3684,5.3707,5.3729,5.3875,5.381,5.382,5.3827,5.4179,5.4182,5.4185,0,0,0,0,0,0,5.2959,5.2993,5.3286,5.3162,5.32,5.331,5.3383,5.34,5.3452,5.3569,5.3589,5.3497,5.3684,5.3713,5.3839,5.3884,5.3826,5.3836,5.4175,5.418,5.4183,5.4166,0,0,0,0,0,0,5.2948,5.2989,5.3032,5.3162,5.3207,5.3392,5.3385,5.3406,5.3472,5.3474,5.3604,5.3624,5.3684,5.3822,5.3851,5.3899,5.3845,5.4172,5.4177,5.4182,5.4163,5.4169,5.4174,0,0,0,0,0,5.2934,5.3017,5.3034,5.3068,5.3263,5.3394,5.342,5.3487,5.3475,5.352,5.3596,5.362,5.3874,5.3834,5.3867,5.392,5.4169,5.4176,5.4182,5.4161,5.4168,5.4174,0,0,0,0,0,0,5.2889,5.3035,5.3056,5.3183,5.3276,5.3404,5.3463,5.3492,5.359,5.3589,5.3668,5.3697,5.382,5.3882,5.3835,5.4039,5.4022,5.4035,5.3995,5.4003,5.4008,5.3992,5.3855,0,0,0,0,0,5.2894,5.2988,5.3111,5.3211,5.3257,5.3352,5.3411,5.3456,5.3555,5.3595,5.3679,5.3775,5.3878,5.3943,5.4043,5.4171,5.4203,5.4224,5.4229,5.4233,5.4245,5.4322,5.4335,5.4205,5.4205,5.4205,0,0,5.2905,5.2997,5.3051,5.3205,5.3282,5.3379,5.3384,5.3486,5.356,5.361,5.3736,5.3801,5.3914,5.4043,5.4105,5.4099,5.4287,5.4241,5.4243,5.4253,5.433,5.4342,5.4353,5.4209,5.4208,5.4208,0,0,5.2977,5.3053,5.3148,5.3226,5.3343,5.3406,5.3429,5.3554,5.36,5.3727,5.3769,5.3857,5.403,5.411,5.4173,5.4278,5.4306,5.4308,5.4338,5.4413,5.4423,5.4433,5.4475,5.4488,5.4319,5.4319,5.4319,0,5.2976,5.3124,5.3193,5.3295,5.3363,5.3414,5.3512,5.3584,5.3727,5.3774,5.3765,5.3987,5.4065,5.4217,5.4243,5.429,5.4322,5.4295,5.4416,5.4426,5.4436,5.4477,5.4492,5.4319,5.4319,5.4319,5.4319,0,5.312,5.3222,5.3284,5.3424,5.3498,5.3597,5.3684,5.3751,5.3789,5.3854,5.3986,5.4082,5.4205,5.4243,5.428,5.4401,5.4395,5.44,5.4385,5.4447,5.4488,5.4503,5.4318,5.4318,5.4319,5.4319,0,0,5.317,5.3348,5.337,5.3436,5.357,5.3651,5.3753,5.3874,5.3932,5.403,5.412,5.4267,5.4274,5.4345,5.4392,5.4457,5.454,5.4455,5.4459,5.4472,5.4685,5.4683,5.4699,5.4558,5.4561,5.4564,5.4677,0,5.3261,5.3446,5.3514,5.3667,5.3764,5.3815,5.3905,5.3998,5.4061,5.4154,5.4224,5.4329,5.4327,5.4372,5.4438,5.4516,5.4585,5.4508,5.4646,5.465,5.462,5.472,5.4718,5.482,5.4692,5.4695,5.4697,0,5.3392,5.3494,5.3657,5.3783,5.3827,5.3906,5.4025,5.4111,5.4219,5.4261,5.4343,5.4386,5.4498,5.4473,5.4631,5.4577,5.4637,5.4684,5.469,5.4708,5.468,5.4745,5.4853,5.487,5.4721,5.4719,5.4717,0,5.3418,5.3595,5.3717,5.3771,5.3919,5.3975,5.404,5.4145,5.4215,5.4318,5.4365,5.4479,5.4542,5.463,5.4705,5.4679,5.4857,5.4837,5.4898,5.4896,5.4935,5.4932,5.5059,5.4967,5.4966,5.4966,5.4966,0,5.3515,5.3614,5.3731,5.3806,5.392,5.3997,5.4107,5.4175,5.4269,5.436,5.4409,5.4494,5.4585,5.4682,5.474,5.4864,5.4891,5.493,5.4945,5.4928,5.4924,5.4972,5.4968,5.497,5.4969,5.4969,5.4968,0,5.3564,5.3646,5.3783,5.3913,5.3949,5.4027,5.414,5.4216,5.4282,5.4397,5.4428,5.4532,5.4649,5.4731,5.4881,5.492,5.5056,5.5068,5.502,5.5028,5.5086,5.5081,5.525,5.5279,5.5163,5.5164,5.5165,0,5.3623,5.3701,5.384,5.3905,5.3971,5.4073,5.4146,5.4224,5.4298,5.4428,5.449,5.461,5.4711,5.4896,5.4986,5.5102,5.512,5.5172,5.5138,5.512,5.5127,5.5123,5.5133,5.5178,5.5178,5.5179,5.518,0,5.372,5.3757,5.3859,5.3977,5.4062,5.4158,5.4254,5.4304,5.4401,5.4481,5.4602,5.468,5.4835,5.4955,5.5081,5.5149,5.5182,5.5189,5.521,5.5196,5.5167,5.5188,5.5039,5.5186,5.5185,5.5185,5.5184,5.5184,5.3779,5.3852,5.3963,5.4077,5.4158,5.4248,5.4328,5.4404,5.4507,5.464,5.4679,5.4806,5.4915,5.5087,5.5157,5.5259,5.5256,5.5284,5.5293,5.53,5.5302,5.5147,5.5281,5.5281,5.5281,5.5281,5.5281,0,5.3883,5.3957,5.406,5.4195,5.4285,5.4308,5.4417,5.4491,5.4602,5.4701,5.48,5.4941,5.5059,5.5159,5.5281,5.5344,5.5362,5.5374,5.5372,5.5388,5.5295,5.5267,5.5357,5.5357,5.5357,5.5357,5.5357,5.5357,5.3947,5.4075,5.4126,5.4295,5.4369,5.4494,5.4555,5.464,5.472,5.4875,5.4974,5.5038,5.5139,5.527,5.538,5.5406,5.5451,5.546,5.549,5.5403,5.5394,5.5386,5.536,5.5468,5.5468,5.5575,5.5576,5.5577]}]]